This is the latest recevied weather packets stored in our database for station/object CRYC. If no packets are shown the sender has not sent any weather packets the latest 10 day(s).
| Time | Temp. | Humidity | Pressure | Rain* | Wind** | Luminosity | Snow |
|---|---|---|---|---|---|---|---|
| 1777956063 | 16.11° C | - | - | 0 mm | 1.34 m/s, 238° | - | - |
| 1777955452 | 16.11° C | - | - | 0 mm | 1.34 m/s, 176° | - | - |
| 1777954841 | 16.11° C | - | - | 0 mm | 1.34 m/s, 274° | - | - |
| 1777954231 | 16.11° C | - | - | 0 mm | 1.79 m/s, 219° | - | - |
| 1777953016 | 16.11° C | - | - | 0 mm | 0.89 m/s, 264° | - | - |
| 1777952405 | 16.11° C | - | - | 0 mm | 0 m/s | - | - |
| 1777951797 | 16.11° C | - | - | 0 mm | 0.45 m/s, 145° | - | - |
| 1777951191 | 16.11° C | - | - | 0 mm | 0.45 m/s, 256° | - | - |
| 1777950578 | 16.11° C | - | - | 0 mm | 0.45 m/s, 183° | - | - |
| 1777949973 | 16.67° C | - | - | 0 mm | 0.89 m/s, 145° | - | - |
| 1777949366 | 16.67° C | - | - | 0 mm | 1.79 m/s, 194° | - | - |
| 1777948758 | 16.67° C | - | - | 0 mm | 1.34 m/s, 204° | - | - |
| 1777948151 | 16.67° C | - | - | 0 mm | 0.89 m/s, 211° | - | - |
| 1777947542 | 17.22° C | - | - | 0 mm | 1.34 m/s, 165° | - | - |
| 1777946934 | 17.22° C | - | - | 0 mm | 1.79 m/s, 181° | - | - |
| 1777946327 | 17.22° C | - | - | 0 mm | 1.34 m/s, 194° | - | - |
| 1777945721 | 17.22° C | - | - | 0 mm | 1.79 m/s, 174° | - | - |
| 1777945114 | 17.22° C | - | - | 0 mm | 0.89 m/s, 183° | - | - |
| 1777944509 | 17.78° C | - | - | 0 mm | 1.34 m/s, 170° | - | - |
| 1777943903 | 17.78° C | - | - | 0 mm | 0 m/s | - | - |
| 1777943295 | 17.78° C | - | - | 0 mm | 0.45 m/s, 166° | - | - |
| 1777942688 | 17.78° C | - | - | 0 mm | 0 m/s | - | - |
| 1777942081 | 18.33° C | - | - | 0 mm | 0 m/s | - | - |
| 1777941475 | 18.33° C | - | - | 0 mm | 0 m/s | - | - |
| 1777940869 | 18.33° C | - | - | 0 mm | 0.45 m/s, 148° | - | - |
* Rain latest hour (hover to see other rain measurements)
** Current wind speed in m/s (hover to see current wind gust speed)